Shelbyville, IN

1:13 AM EDT on July 21, 2017 (GMT -0400)
Shelbyville Municipal

Weather History for KGEZ - April, 2013

Change the Weather History Date:

Wednesday, April 3, 2013

  Actual Average Record
Temperature  
Mean Temperature 37 °F 49 °F  
Max Temperature 50 °F 59 °F 85 °F (2012)
Min Temperature 24 °F 38 °F 24 °F (2013)
Degree Days  
Heating Degree Days 28 17  
Month to date heating degree days 81 51  
Since 1 July heating degree days 4730 4934  
Cooling Degree Days 0 0  
Month to date cooling degree days 0 0  
Year to date cooling degree days 0 1  
Moisture  
Dew Point 16 °F    
Average Humidity 47    
Maximum Humidity 68    
Minimum Humidity 26    
Precipitation  
Precipitation 0.00 in 0.12 in 1.71 in (2014)
Month to date precipitation T 0.35  
Year to date precipitation 6.46 8.53  
Sea Level Pressure  
Sea Level Pressure 30.34 in    
Wind  
Wind Speed 6 mph (NE)    
Max Wind Speed 16 mph    
Max Gust Speed 22 mph    
Visibility 10 miles    
Events      
T = Trace of Precipitation, MM = Missing Value Source: NWS Daily Summary

Daily Weather History Graph

Daily Weather History Graph

Search for Another Location

Airport or City:

Trip Planner

Search our weather history database for the weather conditions in past years. The results will help you decide how hot, cold, wet, or windy it might be!

Date:

Astronomy

Apr. 03, 2013 Rise Set
Actual Time 7:23 AM EDT 8:09 PM EDT
Civil Twilight 6:56 AM EDT 8:36 PM EDT
Nautical Twilight 6:24 AM EDT 9:09 PM EDT
Astronomical Twilight 5:51 AM EDT 9:42 PM EDT
Moon 3:02 AM EDT (4/3) 1:22 PM EDT (4/3)
Length of Visible Light 13h 40m
Length of Day
12h 45m
Last Quarter, 45% of the Moon is Illuminated
Apr 3
Last Quarter
Apr 10
New
Apr 18
First Quarter
Apr 25
Full
May 2
Last Quarter

Hourly Weather History & Observations

Time (EDT) Temp. Windchill Dew Point Humidity Pressure Visibility Wind Dir Wind Speed Gust Speed Precip Events Conditions
12:53 AM 32.0 °F 26.4 °F 17.1 °F 54% 30.27 in 10.0 mi NNE 5.8 mph - N/A   Clear
1:53 AM 30.9 °F 24.3 °F 16.0 °F 54% 30.28 in 10.0 mi NE 6.9 mph - N/A   Clear
2:53 AM 30.9 °F 27.5 °F 12.9 °F 47% 30.28 in 10.0 mi NE 3.5 mph - N/A   Clear
3:53 AM 28.0 °F - 14.0 °F 56% 30.30 in 10.0 mi Calm Calm - N/A   Clear
4:53 AM 28.0 °F - 14.0 °F 56% 30.29 in 10.0 mi Calm Calm - N/A   Clear
5:53 AM 25.0 °F 20.7 °F 15.1 °F 66% 30.31 in 10.0 mi NNE 3.5 mph - N/A   Clear
6:53 AM 26.1 °F 21.9 °F 14.0 °F 60% 30.31 in 10.0 mi NE 3.5 mph - N/A   Clear
7:53 AM 27.0 °F 23.0 °F 15.1 °F 61% 30.35 in 10.0 mi NE 3.5 mph - N/A   Clear
8:53 AM 34.0 °F 29.8 °F 17.1 °F 50% 30.40 in 10.0 mi NE 4.6 mph - N/A   Clear
9:53 AM 37.9 °F 32.7 °F 17.1 °F 43% 30.40 in 10.0 mi NE 6.9 mph - N/A   Clear
10:53 AM 41.0 °F 35.8 °F 14.0 °F 33% 30.41 in 10.0 mi ENE 8.1 mph - N/A   Clear
11:53 AM 44.1 °F 38.6 °F 15.1 °F 31% 30.41 in 10.0 mi North 10.4 mph 17.3 mph N/A   Clear
12:53 PM 44.1 °F 39.5 °F 14.0 °F 30% 30.40 in 10.0 mi NE 8.1 mph 18.4 mph N/A   Clear
1:53 PM 46.0 °F 43.9 °F 16.0 °F 30% 30.38 in 10.0 mi Variable 4.6 mph 19.6 mph N/A   Clear
2:53 PM 48.0 °F - 15.1 °F 27% 30.36 in 10.0 mi NNE 11.5 mph 18.4 mph N/A   Clear
3:53 PM 48.0 °F - 15.1 °F 27% 30.36 in 10.0 mi Variable 5.8 mph - N/A   Clear
4:53 PM 48.0 °F - 15.1 °F 27% 30.36 in 10.0 mi East 6.9 mph - N/A   Clear
5:53 PM 48.0 °F - 16.0 °F 28% 30.35 in 10.0 mi ENE 5.8 mph - N/A   Clear
6:53 PM 48.0 °F - 16.0 °F 28% 30.33 in 10.0 mi East 9.2 mph - N/A   Clear
7:53 PM 43.0 °F 38.8 °F 18.0 °F 37% 30.33 in 10.0 mi East 6.9 mph - N/A   Clear
8:53 PM 37.0 °F 31.6 °F 19.9 °F 50% 30.31 in 10.0 mi ENE 6.9 mph - N/A   Clear
9:53 PM 35.1 °F 29.3 °F 19.9 °F 54% 30.31 in 10.0 mi East 6.9 mph - N/A   Clear
10:53 PM 36.0 °F 33.3 °F 19.9 °F 52% 30.33 in 10.0 mi East 3.5 mph - N/A   Clear
11:53 PM 34.0 °F 29.8 °F 21.0 °F 59% 30.33 in 10.0 mi East 4.6 mph - N/A   Clear